Location: Gleizolles
(44.4833°N, 6.7667°E)
Time: 11:46:41
(UTC+00:00)

Cosmos 1833 Rocket - Pass Details

Date: 09 April 2020
Orbit: 834 x 838 km, 71.0° (Epoch: 03 June)

Event Time Altitude Azimuth Distance (km) Brightness Sun altitude
Exits shadow 20:39:08 31° 63° (ENE) 1,443 3.7 -24.4°
Drops below altitude 10° 20:42:25 10° 38° (NE) 2,458 5.1 -24.8°
Sets 20:44:58 0° 32° (NNE) 3,396 6.0 -25.1°
